カタログに戻る

KUIPER-00160

運用中通信LEO
NORAD 67765·PAYLOAD·🇺🇸 United States

打ち上げ Feb 12, 2026 から Guiana Space Centre

Loading…

次のパス (今後24時間)

TLE

最新Source: CelesTrak SupGP

元期: Sep 14, 2026, 16:36 UTC

1 67765C 26030B   26257.69206019 -.00666600  00000+0 -76617-1 0  2577
2 67765  51.8989  29.9879 0011537 349.3551 328.2957 14.85947529    15

AllMySatでKUIPER-00160をリアルタイム追跡

Download on the App Store